DW9353 Weather Reports


Display with metric or nautical units.
time (UTC)temp
F
wind
direction
speed
MPH
gust
MPH
rain 1hr
in
rain 24hr
in
rain mn
in
humidity
%
barometer
mb
20260507201503 64 254 2.0 9.0 0.00 0.18 0.02 35 1003.9
20260507201004 64 250 2.0 6.0 0.00 0.18 0.02 32 1003.9
20260507200503 64 249 2.0 6.0 0.00 0.19 0.02 31 1003.8
20260507200003 64 273 2.0 7.0 0.00 0.19 0.02 30 1004.0
20260507195504 64 252 2.0 7.0 0.00 0.19 0.02 31 1004.0
20260507195003 65 246 2.0 6.0 0.00 0.19 0.02 33 1004.2
20260507194503 65 261 2.0 8.0 0.00 0.19 0.02 31 1004.1
20260507194004 65 269 2.0 8.0 0.00 0.19 0.02 33 1004.1
20260507193503 65 268 2.0 11.0 0.00 0.19 0.02 33 1004.2
20260507192503 64 276 3.0 9.0 0.00 0.20 0.02 35 1004.2
20260507192003 63 273 3.0 11.0 0.00 0.20 0.02 35 1004.4
20260507191504 62 296 3.0 11.0 0.00 0.20 0.02 35 1004.4
20260507191004 62 312 3.0 9.0 0.00 0.21 0.02 35 1004.3
20260507190504 63 316 2.0 8.0 0.00 0.21 0.02 35 1004.6
20260507185503 63 281 3.0 8.0 0.00 0.22 0.02 36 1004.6
20260507185004 63 269 3.0 8.0 0.00 0.22 0.02 36 1004.8
20260507184504 63 257 2.0 8.0 0.00 0.23 0.02 39 1004.8
20260507184003 63 239 3.0 7.0 0.00 0.23 0.02 36 1004.7
20260507183503 63 258 3.0 8.0 0.00 0.24 0.02 37 1004.7
20260507183004 64 300 3.0 12.0 0.00 0.24 0.02 35 1004.8
20260507182503 64 302 3.0 12.0 0.00 0.24 0.02 34 1004.8
20260507182004 64 302 4.0 12.0 0.00 0.24 0.02 34 1004.7
20260507181003 64 337 3.0 13.0 0.00 0.25 0.02 38 1004.8
20260507180504 64 345 3.0 14.0 0.00 0.25 0.02 38 1004.9
20260507175504 64 296 3.0 14.0 0.00 0.25 0.02 35 1004.9
20260507175003 64 295 3.0 14.0 0.00 0.25 0.02 38 1004.8
20260507174503 63 292 3.0 9.0 0.00 0.25 0.02 38 1004.6
20260507174004 64 286 3.0 13.0 0.00 0.25 0.02 38 1004.6
20260507173004 63 308 4.0 10.0 0.00 0.25 0.02 36 1004.9
20260507172004 63 309 4.0 16.0 0.00 0.25 0.02 33 1004.9
20260507171004 63 284 3.0 16.0 0.00 0.25 0.02 36 1005.0
20260507170503 63 257 3.0 12.0 0.00 0.25 0.02 38 1004.8
20260507170004 63 276 3.0 9.0 0.00 0.25 0.02 37 1005.1
20260507165503 63 275 3.0 12.0 0.00 0.25 0.02 37 1005.2
20260507165004 63 304 3.0 12.0 0.00 0.25 0.02 40 1005.4
20260507164503 63 314 4.0 16.0 0.00 0.25 0.02 35 1005.4
20260507164004 62 283 4.0 16.0 0.00 0.25 0.02 37 1005.2
20260507162504 62 267 4.0 13.0 0.00 0.25 0.02 43 1005.3
20260507162004 62 238 4.0 11.0 0.00 0.25 0.02 49 1005.4
20260507160503 60 276 2.0 14.0 0.00 0.25 0.02 50 1005.5
20260507160004 60 266 3.0 14.0 0.00 0.25 0.02 48 1005.6
20260507155004 61 252 3.0 16.0 0.00 0.25 0.02 55 1005.6
20260507154503 60 295 3.0 14.0 0.00 0.25 0.02 55 1005.7
20260507154004 60 298 3.0 14.0 0.00 0.25 0.02 54 1005.9
20260507153504 60 259 2.0 9.0 0.00 0.25 0.02 57 1005.9
20260507153004 59 291 2.0 9.0 0.00 0.25 0.02 56 1006.0
20260507152504 59 265 3.0 8.0 0.00 0.25 0.02 60 1006.0
20260507152004 60 231 3.0 12.0 0.00 0.25 0.02 55 1006.1
20260507151503 60 237 2.0 12.0 0.00 0.25 0.02 57 1006.1
20260507151003 59 263 2.0 6.0 0.00 0.25 0.02 57 1006.1
20260507150503 59 303 1.0 4.0 0.00 0.25 0.02 57 1006.3
20260507150005 60 322 2.0 10.0 0.00 0.25 0.02 53 1006.4
20260507145503 60 293 2.0 10.0 0.00 0.25 0.02 53 1006.4
20260507145004 60 285 2.0 9.0 0.00 0.25 0.02 55 1006.3
20260507144504 60 285 2.0 10.0 0.00 0.25 0.02 53 1006.4
20260507144004 60 247 2.0 10.0 0.00 0.25 0.02 56 1006.3
20260507143503 60 255 2.0 5.0 0.00 0.25 0.02 56 1006.2
20260507143004 60 255 2.0 6.0 0.00 0.25 0.02 54 1006.2
20260507142503 60 261 2.0 6.0 0.00 0.25 0.02 54 1006.3
20260507142004 60 275 2.0 8.0 0.00 0.25 0.02 56 1006.2
20260507141504 60 275 3.0 8.0 0.00 0.25 0.02 56 1006.2
20260507140503 59 283 2.0 10.0 0.00 0.25 0.02 56 1006.2
20260507140004 59 265 3.0 9.0 0.00 0.25 0.02 58 1006.1
20260507135503 59 259 2.0 9.0 0.00 0.25 0.02 56 1006.1
20260507135003 59 287 2.0 9.0 0.00 0.25 0.02 57 1006.1
20260507134004 59 297 1.0 11.0 0.00 0.25 0.02 56 1006.2
20260507133504 58 298 1.0 6.0 0.00 0.25 0.02 61 1006.3
20260507133004 58 274 2.0 6.0 0.00 0.25 0.02 58 1006.4
20260507132504 58 255 1.0 6.0 0.00 0.25 0.02 57 1006.5
20260507132004 58 277 1.0 6.0 0.00 0.25 0.02 60 1006.6
20260507131503 58 316 1.0 4.0 0.00 0.25 0.02 61 1006.6
20260507131004 57 324 2.0 7.0 0.00 0.25 0.02 60 1006.7
20260507130503 57 325 2.0 9.0 0.00 0.25 0.02 62 1006.5
20260507125004 56 322 2.0 13.0 0.00 0.25 0.02 61 1006.7
20260507124503 55 319 2.0 13.0 0.00 0.25 0.02 63 1006.6
20260507123503 55 270 2.0 7.0 0.00 0.25 0.02 68 1006.7
20260507123004 54 280 2.0 5.0 0.00 0.25 0.02 69 1006.7
20260507122504 54 239 2.0 5.0 0.00 0.25 0.02 72 1006.8
20260507122004 53 281 2.0 8.0 0.00 0.25 0.02 74 1006.9
20260507121503 52 282 2.0 8.0 0.00 0.25 0.02 74 1006.8
20260507121004 52 289 2.0 7.0 0.00 0.25 0.02 77 1006.8
20260507120503 52 324 1.0 7.0 0.00 0.25 0.02 78 1006.7
20260507120004 51 346 0.0 2.0 0.00 0.25 0.02 82 1006.8
20260507115503 50 306 1.0 7.0 0.00 0.25 0.02 83 1006.8
20260507115003 49 290 1.0 7.0 0.00 0.25 0.02 82 1006.8
20260507114503 49 256 1.0 4.0 0.00 0.25 0.02 82 1006.8
20260507113504 49 284 2.0 9.0 0.00 0.25 0.02 84 1006.6
20260507112504 48 340 0.0 3.0 0.00 0.25 0.02 85 1006.5
20260507112004 48 302 1.0 3.0 0.00 0.25 0.02 86 1006.5
20260507111503 48 310 1.0 4.0 0.00 0.25 0.02 85 1006.7
20260507110503 47 298 1.0 10.0 0.00 0.25 0.02 86 1006.6
20260507110005 47 311 1.0 8.0 0.00 0.25 0.02 89 1006.3
20260507105503 47 299 0.0 4.0 0.00 0.25 0.02 90 1006.4
20260507105003 47 313 1.0 10.0 0.00 0.25 0.02 89 1006.3
20260507104504 47 326 1.0 10.0 0.00 0.25 0.02 90 1006.3
20260507104004 47 294 1.0 6.0 0.00 0.25 0.02 91 1006.1
20260507103503 47 268 1.0 6.0 0.00 0.25 0.02 90 1006.3
20260507103004 47 267 1.0 5.0 0.00 0.25 0.02 90 1006.1
20260507102503 47 262 1.0 5.0 0.00 0.25 0.02 90 1006.1
20260507102006 47 239 1.0 4.0 0.00 0.25 0.02 91 1006.1
20260507101503 47 264 1.0 7.0 0.00 0.25 0.02 91 1006.1
20260507101003 47 276 1.0 7.0 0.00 0.25 0.02 92 1006.1
20260507100503 47 292 1.0 5.0 0.00 0.25 0.02 92 1006.1
20260507095004 47 332 0.0 4.0 0.00 0.25 0.02 94 1006.3
20260507094503 47 324 0.0 4.0 0.00 0.25 0.02 94 1006.3
20260507094003 47 309 1.0 4.0 0.00 0.25 0.02 94 1006.2
20260507093503 47 282 1.0 4.0 0.00 0.25 0.02 94 1006.2
20260507093004 47 289 1.0 6.0 0.00 0.25 0.02 94 1006.1
20260507092504 47 317 1.0 6.0 0.00 0.25 0.02 95 1006.1
20260507091503 47 301 0.0 3.0 0.01 0.25 0.02 96 1006.1
20260507091003 47 307 1.0 4.0 0.01 0.25 0.02 96 1006.3
20260507090503 47 305 1.0 4.0 0.02 0.25 0.02 95 1005.8
20260507085504 47 290 0.0 4.0 0.02 0.25 0.02 95 1005.9
20260507085004 47 278 0.0 2.0 0.02 0.25 0.02 96 1006.4
20260507084503 47 278 0.0 1.0 0.02 0.25 0.02 95 1006.0
20260507084004 47 278 0.0 1.0 0.02 0.25 0.02 95 1005.7
20260507083503 47 278 0.0 1.0 0.02 0.25 0.02 94 1005.7
20260507082503 48 327 0.0 2.0 0.02 0.25 0.02 94 1005.8
20260507082004 48 331 0.0 1.0 0.02 0.25 0.02 93 1005.8
20260507081504 48 309 1.0 3.0 0.01 0.24 0.01 92 1005.7
20260507081004 48 293 1.0 5.0 0.01 0.24 0.01 91 1005.5
20260507080004 49 274 0.0 4.0 0.00 0.23 0.00 90 1005.9
20260507075504 49 262 1.0 4.0 0.00 0.23 0.00 90 1006.0
20260507075004 49 250 0.0 3.0 0.00 0.23 0.00 89 1006.0
20260507074503 49 273 0.0 4.0 0.00 0.23 0.00 89 1005.8
20260507074003 49 348 0.0 4.0 0.00 0.23 0.00 90 1005.8
20260507073503 49 298 1.0 3.0 0.00 0.23 0.00 90 1005.7
20260507072504 49 304 0.0 3.0 0.00 0.23 0.00 90 1005.6
20260507072004 49 294 0.0 4.0 0.00 0.23 0.00 90 1005.5
20260507071503 49 310 0.0 4.0 0.00 0.23 0.00 89 1005.5
20260507071004 50 255 1.0 5.0 0.00 0.23 0.00 89 1005.6
20260507070504 50 270 2.0 5.0 0.00 0.23 0.00 90 1005.8
20260507070008 50 289 1.0 6.0 0.00 0.23 0.00 90 1005.6
20260507065003 50 332 1.0 11.0 0.00 0.23 0.00 90 1005.2
20260507064503 50 320 1.0 11.0 0.00 0.23 0.00 90 1005.4
20260507064003 50 314 1.0 7.0 0.00 0.23 0.00 91 1005.6
20260507063504 50 290 1.0 6.0 0.00 0.23 0.00 91 1005.3
20260507062004 50 294 1.0 7.0 0.00 0.23 0.00 91 1005.0
20260507061503 50 284 1.0 7.0 0.00 0.23 0.00 91 1005.1
20260507060504 51 290 0.0 4.0 0.00 0.23 0.00 93 1005.4
20260507060004 51 328 0.0 3.0 0.00 0.23 0.00 94 1005.5
20260507055503 51 333 0.0 3.0 0.00 0.23 0.00 94 1005.4
20260507055003 51 302 0.0 4.0 0.00 0.23 0.00 94 1005.4
20260507054503 51 299 0.0 4.0 0.00 0.23 0.00 94 1005.7
20260507054004 51 297 0.0 2.0 0.00 0.23 0.00 94 1005.6
20260507053005 52 233 0.0 5.0 0.00 0.23 0.00 94 1005.5
20260507052503 52 231 0.0 3.0 0.00 0.23 0.00 95 1005.4
20260507052004 52 264 1.0 3.0 0.00 0.23 0.00 94 1005.6
20260507051004 52 284 1.0 3.0 0.00 0.23 0.00 94 1005.5
20260507050504 52 303 0.0 5.0 0.00 0.23 0.00 94 1005.4
20260507050005 52 307 1.0 6.0 0.00 0.23 0.00 94 1005.1
20260507045503 52 307 1.0 6.0 0.00 0.23 0.00 94 1005.0
20260507045003 52 307 0.0 6.0 0.00 0.23 0.00 94 1005.3
20260507044503 53 336 0.0 3.0 0.00 0.23 0.00 94 1005.3
20260507044004 53 327 1.0 7.0 0.00 0.23 0.00 94 1005.4
20260507043503 53 320 1.0 8.0 0.00 0.23 0.00 94 1005.3
20260507043003 53 303 1.0 8.0 0.00 0.23 0.00 93 1005.4
20260507042503 53 238 0.0 3.0 0.00 0.23 0.00 95 1005.6
20260507042004 54 237 0.0 3.0 0.00 0.23 0.00 95 1005.6
20260507041504 54 231 1.0 4.0 0.00 0.23 0.00 95 1005.6
20260507041004 54 239 1.0 4.0 0.00 0.23 0.00 95 1005.6
20260507040503 54 277 0.0 2.0 0.00 0.23 0.00 95 1005.2
20260507040005 54 283 0.0 3.0 0.00 0.23 0.00 95 1005.1
20260507035503 54 286 0.0 3.0 0.01 0.23 0.23 95 1005.1
20260507035003 55 250 1.0 4.0 0.01 0.23 0.23 95 1004.9
20260507034503 55 238 1.0 4.0 0.01 0.23 0.23 94 1004.9
20260507034004 56 278 1.0 9.0 0.01 0.23 0.23 94 1004.8
20260507033503 56 286 2.0 9.0 0.01 0.23 0.23 94 1004.6
20260507033003 56 302 2.0 13.0 0.01 0.23 0.23 94 1004.7
20260507032504 57 305 2.0 13.0 0.01 0.23 0.23 94 1004.5
20260507032003 57 297 1.0 7.0 0.01 0.23 0.23 95 1004.6
20260507031504 58 317 1.0 5.0 0.01 0.23 0.23 95 1004.7
20260507030503 59 285 2.0 7.0 0.01 0.23 0.23 96 1004.5
20260507030004 59 270 1.0 7.0 0.01 0.23 0.23 97 1004.4
20260507025503 59 315 1.0 4.0 0.00 0.22 0.22 97 1004.2
20260507025003 59 269 1.0 4.0 0.00 0.22 0.22 97 1004.1
20260507024504 59 243 1.0 5.0 0.00 0.22 0.22 97 1004.1
20260507024004 59 230 1.0 5.0 0.00 0.22 0.22 97 1004.0
20260507023004 59 231 1.0 8.0 0.00 0.22 0.22 96 1003.9
20260507021503 59 229 2.0 8.0 0.00 0.22 0.22 96 1003.8
20260507021004 59 240 2.0 8.0 0.00 0.22 0.22 96 1003.8
20260507020503 59 242 2.0 8.0 0.00 0.22 0.22 96 1003.7
20260507020004 59 225 2.0 8.0 0.00 0.22 0.22 96 1003.9
20260507015503 59 203 1.0 8.0 0.00 0.22 0.22 96 1003.9
20260507015004 59 200 1.0 8.0 0.00 0.22 0.22 96 1004.0
20260507014503 59 208 2.0 6.0 0.00 0.22 0.22 96 1004.0
20260507014004 59 226 2.0 6.0 0.00 0.22 0.22 96 1004.0
20260507013503 59 253 2.0 8.0 0.00 0.22 0.22 96 1004.0
20260507013005 59 251 2.0 9.0 0.00 0.22 0.22 96 1004.0
20260507012503 59 221 2.0 9.0 0.00 0.22 0.22 96 1004.0
20260507012004 59 214 1.0 7.0 0.00 0.22 0.22 97 1003.9
20260507011003 59 243 2.0 7.0 0.00 0.22 0.22 96 1004.0
20260507010503 59 229 2.0 7.0 0.00 0.22 0.22 96 1004.1
20260507010004 59 219 1.0 6.0 0.00 0.22 0.22 96 1004.1
20260507005503 59 239 1.0 6.0 0.00 0.22 0.22 96 1004.1
20260507005004 59 231 2.0 7.0 0.00 0.22 0.22 96 1004.1
20260507004503 59 237 2.0 8.0 0.00 0.22 0.22 96 1004.0
20260507003504 59 249 2.0 10.0 0.01 0.22 0.22 96 1003.8
20260507003004 59 233 2.0 10.0 0.01 0.22 0.22 96 1003.8
20260507002504 59 214 2.0 9.0 0.01 0.22 0.22 97 1003.9
20260507002004 59 210 1.0 7.0 0.02 0.22 0.22 96 1003.8
20260507001503 59 206 2.0 7.0 0.03 0.22 0.22 96 1003.7
20260507001004 59 219 2.0 7.0 0.03 0.22 0.22 97 1003.7
20260507000503 60 228 1.0 6.0 0.04 0.22 0.22 97 1003.8
20260507000004 60 219 2.0 6.0 0.05 0.22 0.22 96 1003.8
20260506235503 60 227 2.0 9.0 0.05 0.22 0.22 96 1003.8
20260506235004 60 243 1.0 9.0 0.05 0.22 0.22 96 1003.7
20260506234503 60 248 1.0 4.0 0.05 0.22 0.22 96 1003.6
20260506233503 60 242 1.0 9.0 0.04 0.21 0.21 96 1003.7
20260506233004 60 247 1.0 9.0 0.04 0.21 0.21 96 1003.7
20260506232503 60 248 1.0 6.0 0.04 0.21 0.21 96 1003.7
20260506232004 60 233 1.0 5.0 0.04 0.20 0.20 96 1003.8
20260506231503 60 225 1.0 5.0 0.03 0.19 0.19 96 1003.9
20260506231004 60 208 1.0 5.0 0.04 0.19 0.19 96 1003.9
20260506230503 60 199 1.0 8.0 0.03 0.18 0.18 96 1004.1
20260506230003 60 207 1.0 8.0 0.03 0.17 0.17 96 1004.1
20260506225504 60 224 1.0 7.0 0.04 0.17 0.17 96 1004.0
20260506225003 60 259 2.0 7.0 0.04 0.17 0.17 95 1004.0
20260506224504 60 219 2.0 8.0 0.04 0.17 0.17 95 1004.0
20260506224004 60 226 2.0 8.0 0.05 0.17 0.17 95 1004.0
20260506223504 60 262 1.0 8.0 0.05 0.17 0.17 96 1004.1
20260506223004 60 243 1.0 8.0 0.05 0.17 0.17 96 1004.1
20260506222503 60 238 1.0 8.0 0.06 0.17 0.17 95 1004.2
20260506222004 60 247 1.0 4.0 0.05 0.16 0.16 95 1004.2
20260506221504 60 218 1.0 4.0 0.04 0.15 0.15 96 1004.3
20260506221004 60 201 1.0 6.0 0.04 0.15 0.15 96 1004.2
20260506220503 60 210 1.0 8.0 0.04 0.15 0.15 95 1004.4
20260506220004 60 239 1.0 8.0 0.03 0.14 0.14 95 1004.3
20260506215503 60 260 1.0 8.0 0.03 0.13 0.13 95 1004.3
20260506215004 60 221 2.0 9.0 0.03 0.13 0.13 95 1004.4
20260506214503 60 210 2.0 9.0 0.03 0.12 0.12 94 1004.4
20260506214004 60 214 2.0 9.0 0.03 0.12 0.12 95 1004.5
20260506213503 60 194 2.0 9.0 0.03 0.12 0.12 94 1004.5
20260506213004 60 209 2.0 11.0 0.03 0.12 0.12 94 1004.5
20260506212503 60 241 2.0 11.0 0.03 0.11 0.11 94 1004.5
20260506212004 60 246 1.0 7.0 0.04 0.11 0.11 94 1004.6
20260506211503 61 232 2.0 12.0 0.04 0.11 0.11 94 1004.7
20260506211004 61 222 2.0 12.0 0.04 0.11 0.11 94 1004.8
20260506210503 61 218 3.0 9.0 0.05 0.11 0.11 93 1004.8
20260506210004 61 234 3.0 19.0 0.05 0.11 0.11 94 1004.8
20260506204004 62 193 1.0 6.0 0.03 0.09 0.09 94 1004.9
20260506203503 62 197 1.0 6.0 0.03 0.09 0.09 94 1004.9
20260506203004 62 215 1.0 6.0 0.03 0.09 0.09 93 1004.9
20260506202503 62 262 1.0 3.0 0.03 0.08 0.08 93 1004.9
20260506202004 62 250 1.0 5.0 0.02 0.07 0.07 93 1004.9